| time (UTC) | temp F | wind direction | speed knots | gust knots | rain 1hr in | rain 24hr in | rain mn in | humidity % | barometer mb |
| 20260902092522 | 78 | 226 | 8.7 | 17.4 | 0.00 | 0.00 | 0.00 | 66 | 1019.8 |
| 20260902091516 | 76 | 198 | 8.7 | 22.6 | 0.00 | 0.00 | 0.00 | 67 | 1019.9 |
| 20260902090518 | 76 | 258 | 8.7 | 14.8 | 0.00 | 0.00 | 0.00 | 69 | 1019.8 |
| 20260902085519 | 74 | 195 | 12.2 | 23.5 | 0.00 | 0.00 | 0.00 | 71 | 1019.9 |
| 20260902084521 | 72 | 233 | 5.2 | 11.3 | 0.00 | 0.00 | 0.00 | 74 | 1019.9 |
| 20260902083518 | 72 | 265 | 7.8 | 11.3 | 0.00 | 0.00 | 0.00 | 74 | 1020.1 |
| 20260902082522 | 71 | 218 | 6.1 | 10.4 | 0.00 | 0.00 | 0.00 | 75 | 1020.1 |
| 20260902081518 | 70 | 222 | 11.3 | 15.6 | 0.00 | 0.00 | 0.00 | 76 | 1020.2 |
| 20260902080521 | 70 | 179 | 8.7 | 15.6 | 0.00 | 0.00 | 0.00 | 77 | 1020.1 |
| 20260902075519 | 70 | 234 | 5.2 | 13.9 | 0.00 | 0.00 | 0.00 | 78 | 1020.0 |
| 20260902074521 | 70 | 252 | 9.6 | 14.8 | 0.00 | 0.00 | 0.00 | 77 | 1020.0 |
| 20260902073517 | 69 | 330 | 4.3 | 7.0 | 0.00 | 0.00 | 0.00 | 80 | 1019.9 |
| 20260902072518 | 68 | 89 | 1.7 | 4.3 | 0.00 | 0.00 | 0.00 | 82 | 1020.0 |
| 20260902071518 | 67 | 276 | 5.2 | 9.6 | 0.00 | 0.00 | 0.00 | 85 | 1020.0 |
| 20260902070520 | 65 | 307 | 6.1 | 10.4 | 0.00 | 0.00 | 0.00 | 86 | 1020.1 |
| 20260902065517 | 65 | 285 | 9.6 | 13.9 | 0.00 | 0.00 | 0.00 | 86 | 1020.1 |
| 20260902064520 | 65 | 273 | 13.9 | 20.9 | 0.00 | 0.00 | 0.00 | 86 | 1020.2 |
| 20260902063522 | 65 | 298 | 9.6 | 14.8 | 0.00 | 0.00 | 0.00 | 87 | 1020.0 |
| 20260902062601 | 64 | 272 | 12.2 | 16.5 | 0.00 | 0.00 | 0.00 | 87 | 1019.9 |
| 20260902061518 | 65 | 306 | 8.7 | 15.6 | 0.00 | 0.00 | 0.00 | 87 | 1020.0 |
| 20260902060518 | 64 | 306 | 10.4 | 16.5 | 0.00 | 0.00 | 0.00 | 87 | 1019.9 |
| 20260902055522 | 64 | 283 | 13.0 | 22.6 | 0.00 | 0.00 | 0.00 | 89 | 1019.8 |
| 20260902054523 | 63 | 268 | 13.9 | 19.1 | 0.00 | 0.00 | 0.00 | 90 | 1019.9 |
| 20260902053519 | 62 | 279 | 12.2 | 18.2 | 0.00 | 0.00 | 0.00 | 91 | 1019.8 |
| 20260902052519 | 62 | 287 | 10.4 | 18.2 | 0.00 | 0.00 | 0.00 | 91 | 1019.7 |
| 20260902051557 | 62 | 279 | 9.6 | 12.2 | 0.00 | 0.00 | 0.00 | 91 | 1019.7 |
| 20260902050519 | 62 | 271 | 8.7 | 13.0 | 0.00 | 0.00 | 0.00 | 92 | 1019.7 |
| 20260902045518 | 62 | 273 | 7.0 | 13.0 | 0.00 | 0.00 | 0.00 | 91 | 1019.6 |
| 20260902044542 | 62 | 269 | 5.2 | 7.8 | 0.00 | 0.00 | 0.00 | 91 | 1019.6 |
| 20260902043521 | 62 | 186 | 3.5 | 7.0 | 0.00 | 0.00 | 0.00 | 91 | 1019.5 |
| 20260902042541 | 62 | 336 | 3.5 | 7.0 | 0.00 | 0.00 | 0.00 | 91 | 1019.3 |
| 20260902041517 | 61 | 322 | 4.3 | 7.0 | 0.00 | 0.00 | 0.00 | 92 | 1019.3 |
| 20260902040522 | 61 | 351 | 3.5 | 7.8 | 0.00 | 0.00 | 0.00 | 91 | 1019.3 |
| 20260902035518 | 61 | 331 | 4.3 | 7.0 | 0.00 | 0.00 | 0.00 | 91 | 1019.3 |
| 20260902034540 | 61 | 304 | 4.3 | 9.6 | 0.00 | 0.00 | 0.00 | 91 | 1019.3 |
| 20260902033518 | 61 | 348 | 5.2 | 7.8 | 0.00 | 0.00 | 0.00 | 91 | 1019.2 |
| 20260902032521 | 61 | 265 | 2.6 | 4.3 | 0.00 | 0.00 | 0.00 | 92 | 1019.3 |
| 20260902031517 | 61 | 316 | 4.3 | 8.7 | 0.00 | 0.00 | 0.00 | 92 | 1019.2 |
| 20260902025517 | 61 | 297 | 7.8 | 17.4 | 0.00 | 0.00 | 0.00 | 92 | 1019.4 |
| 20260902024522 | 60 | 337 | 5.2 | 8.7 | 0.00 | 0.00 | 0.00 | 91 | 1019.2 |
| 20260902023518 | 60 | 270 | 3.5 | 6.1 | 0.00 | 0.00 | 0.00 | 91 | 1019.2 |
| 20260902022519 | 60 | 327 | 7.0 | 15.6 | 0.00 | 0.00 | 0.00 | 90 | 1019.0 |
| 20260902021521 | 60 | 183 | 2.6 | 4.3 | 0.00 | 0.00 | 0.00 | 90 | 1019.0 |
| 20260902020541 | 60 | 139 | 6.1 | 9.6 | 0.00 | 0.00 | 0.00 | 89 | 1018.9 |
| 20260902015519 | 61 | 137 | 2.6 | 6.1 | 0.00 | 0.00 | 0.00 | 89 | 1018.8 |
| 20260902014517 | 61 | 20 | 11.3 | 18.2 | 0.00 | 0.00 | 0.00 | 90 | 1018.8 |
| 20260902013517 | 60 | 22 | 7.8 | 9.6 | 0.00 | 0.00 | 0.00 | 89 | 1018.8 |
| 20260902012521 | 61 | 57 | 3.5 | 8.7 | 0.00 | 0.00 | 0.00 | 88 | 1018.9 |
| 20260902011517 | 62 | 151 | 5.2 | 7.8 | 0.00 | 0.00 | 0.00 | 87 | 1018.8 |
| 20260902010517 | 62 | 176 | 1.7 | 6.1 | 0.00 | 0.00 | 0.00 | 87 | 1018.6 |
| 20260902005517 | 62 | 14 | 4.3 | 7.0 | 0.00 | 0.00 | 0.00 | 88 | 1018.5 |
| 20260902004518 | 62 | 349 | 9.6 | 14.8 | 0.00 | 0.00 | 0.00 | 88 | 1018.5 |
| 20260902003518 | 62 | 329 | 4.3 | 6.1 | 0.00 | 0.00 | 0.00 | 88 | 1018.5 |
| 20260902002522 | 61 | 26 | 6.1 | 9.6 | 0.00 | 0.00 | 0.00 | 87 | 1018.5 |
| 20260902001519 | 62 | 153 | 2.6 | 6.1 | 0.00 | 0.00 | 0.00 | 87 | 1018.6 |
| 20260902000521 | 62 | 128 | 1.7 | 4.3 | 0.00 | 0.00 | 0.00 | 85 | 1018.6 |
| 20260901235518 | 63 | 156 | 0.9 | 4.3 | 0.00 | 0.00 | 0.00 | 84 | 1018.5 |
| 20260901234522 | 64 | 161 | 2.6 | 6.1 | 0.00 | 0.00 | 0.00 | 83 | 1018.4 |
| 20260901233518 | 64 | 26 | 2.6 | 4.3 | 0.00 | 0.00 | 0.00 | 82 | 1018.3 |
| 20260901232519 | 64 | 359 | 4.3 | 7.0 | 0.00 | 0.00 | 0.00 | 81 | 1018.2 |
| 20260901231517 | 64 | 3 | 7.8 | 9.6 | 0.00 | 0.00 | 0.00 | 82 | 1018.2 |
| 20260901230521 | 64 | 12 | 8.7 | 10.4 | 0.00 | 0.00 | 0.00 | 82 | 1018.1 |
| 20260901225518 | 64 | 14 | 7.8 | 9.6 | 0.00 | 0.00 | 0.00 | 83 | 1018.2 |
| 20260901224522 | 63 | 7 | 4.3 | 7.0 | 0.00 | 0.00 | 0.00 | 85 | 1018.3 |
| 20260901223518 | 64 | 350 | 1.7 | 6.1 | 0.00 | 0.00 | 0.00 | 84 | 1018.4 |
| 20260901222521 | 64 | 289 | 1.7 | 6.1 | 0.00 | 0.00 | 0.00 | 84 | 1018.5 |
| 20260901221517 | 64 | 307 | 4.3 | 7.8 | 0.00 | 0.00 | 0.00 | 84 | 1018.5 |
| 20260901220539 | 64 | 328 | 4.3 | 9.6 | 0.00 | 0.00 | 0.00 | 84 | 1018.4 |
| 20260901215517 | 64 | 314 | 4.3 | 9.6 | 0.00 | 0.00 | 0.00 | 84 | 1018.4 |
| 20260901214521 | 64 | 313 | 5.2 | 8.7 | 0.00 | 0.00 | 0.00 | 84 | 1018.3 |
| 20260901213538 | 64 | 299 | 0.9 | 4.3 | 0.00 | 0.00 | 0.00 | 84 | 1018.3 |
| 20260901212518 | 65 | 299 | 0.9 | 4.3 | 0.00 | 0.00 | 0.00 | 84 | 1018.2 |
| 20260901211517 | 65 | 317 | 0.9 | 4.3 | 0.00 | 0.00 | 0.00 | 83 | 1018.2 |
| 20260901210521 | 65 | 320 | 1.7 | 4.3 | 0.00 | 0.00 | 0.00 | 83 | 1018.2 |
| 20260901205518 | 65 | 198 | 1.7 | 3.5 | 0.00 | 0.00 | 0.00 | 82 | 1018.1 |
| 20260901204522 | 65 | 185 | 3.5 | 5.2 | 0.00 | 0.00 | 0.00 | 82 | 1018.1 |
| 20260901203518 | 66 | 153 | 4.3 | 6.1 | 0.00 | 0.00 | 0.00 | 82 | 1017.9 |
| 20260901202523 | 66 | 146 | 4.3 | 6.1 | 0.00 | 0.00 | 0.00 | 81 | 1017.9 |
| 20260901201517 | 66 | 153 | 1.7 | 4.3 | 0.00 | 0.00 | 0.00 | 80 | 1017.8 |
| 20260901200518 | 67 | 170 | 0.9 | 4.3 | 0.00 | 0.00 | 0.00 | 79 | 1017.8 |
| 20260901195521 | 68 | 190 | 4.3 | 6.1 | 0.00 | 0.00 | 0.00 | 78 | 1017.8 |
| 20260901194522 | 68 | 341 | 7.0 | 13.0 | 0.00 | 0.00 | 0.00 | 77 | 1017.6 |
| 20260901193539 | 68 | 341 | 7.8 | 13.0 | 0.00 | 0.00 | 0.00 | 76 | 1017.7 |
| 20260901192541 | 69 | 343 | 9.6 | 17.4 | 0.00 | 0.00 | 0.00 | 76 | 1017.6 |
| 20260901191517 | 69 | 338 | 10.4 | 14.8 | 0.00 | 0.00 | 0.00 | 76 | 1017.7 |
| 20260901190517 | 69 | 328 | 6.1 | 11.3 | 0.00 | 0.00 | 0.00 | 75 | 1017.7 |
| 20260901185518 | 70 | 317 | 7.8 | 13.0 | 0.00 | 0.00 | 0.00 | 75 | 1017.7 |
| 20260901184522 | 70 | 322 | 8.7 | 15.6 | 0.00 | 0.00 | 0.00 | 75 | 1017.7 |
| 20260901183538 | 70 | 323 | 7.8 | 13.9 | 0.00 | 0.00 | 0.00 | 75 | 1017.6 |
| 20260901182521 | 70 | 320 | 9.6 | 13.9 | 0.00 | 0.00 | 0.00 | 75 | 1017.5 |
| 20260901181537 | 70 | 324 | 8.7 | 14.8 | 0.00 | 0.00 | 0.00 | 75 | 1017.5 |
| 20260901180521 | 69 | 336 | 7.8 | 11.3 | 0.00 | 0.00 | 0.00 | 75 | 1017.4 |
| 20260901175518 | 69 | 339 | 8.7 | 11.3 | 0.00 | 0.00 | 0.00 | 75 | 1017.3 |
| 20260901174539 | 70 | 340 | 6.1 | 11.3 | 0.00 | 0.00 | 0.00 | 75 | 1017.3 |
| 20260901173541 | 70 | 319 | 7.0 | 11.3 | 0.00 | 0.00 | 0.00 | 74 | 1017.1 |
| 20260901172542 | 70 | 325 | 7.8 | 14.8 | 0.00 | 0.00 | 0.00 | 73 | 1016.9 |
| 20260901171518 | 71 | 313 | 12.2 | 22.6 | 0.00 | 0.00 | 0.00 | 73 | 1016.8 |
| 20260901170520 | 71 | 306 | 9.6 | 14.8 | 0.00 | 0.00 | 0.00 | 73 | 1016.7 |
| 20260901165517 | 71 | 306 | 9.6 | 13.9 | 0.00 | 0.00 | 0.00 | 73 | 1016.7 |
| 20260901164521 | 71 | 315 | 7.8 | 13.9 | 0.00 | 0.00 | 0.00 | 72 | 1016.6 |
| 20260901163518 | 71 | 315 | 9.6 | 17.4 | 0.00 | 0.00 | 0.00 | 72 | 1016.5 |
| 20260901162539 | 72 | 303 | 9.6 | 13.9 | 0.00 | 0.00 | 0.00 | 72 | 1016.4 |
| 20260901161517 | 72 | 329 | 7.8 | 13.9 | 0.00 | 0.00 | 0.00 | 72 | 1016.5 |
| 20260901160522 | 72 | 322 | 7.8 | 18.2 | 0.00 | 0.00 | 0.00 | 71 | 1016.4 |
| 20260901155539 | 72 | 306 | 11.3 | 20.0 | 0.00 | 0.00 | 0.00 | 72 | 1016.4 |
| 20260901154541 | 72 | 338 | 10.4 | 20.0 | 0.00 | 0.00 | 0.00 | 72 | 1016.3 |
| 20260901153518 | 72 | 304 | 15.6 | 21.7 | 0.00 | 0.00 | 0.00 | 71 | 1016.3 |
| 20260901152522 | 72 | 312 | 13.0 | 22.6 | 0.00 | 0.00 | 0.00 | 71 | 1016.2 |
| 20260901151516 | 73 | 323 | 12.2 | 17.4 | 0.00 | 0.00 | 0.00 | 70 | 1016.2 |
| 20260901150519 | 73 | 310 | 17.4 | 29.5 | 0.00 | 0.00 | 0.00 | 70 | 1016.2 |
| 20260901145518 | 74 | 318 | 14.8 | 23.5 | 0.00 | 0.00 | 0.00 | 68 | 1016.1 |
| 20260901144522 | 74 | 307 | 22.6 | 41.7 | 0.00 | 0.00 | 0.00 | 68 | 1016.1 |
| 20260901143516 | 74 | 313 | 20.9 | 32.2 | 0.00 | 0.00 | 0.00 | 68 | 1016.1 |
| 20260901142521 | 73 | 303 | 23.5 | 31.3 | 0.00 | 0.00 | 0.00 | 69 | 1016.2 |
| 20260901141518 | 74 | 298 | 21.7 | 33.9 | 0.00 | 0.00 | 0.00 | 68 | 1016.2 |
| 20260901140520 | 75 | 294 | 23.5 | 42.6 | 0.00 | 0.00 | 0.00 | 67 | 1016.1 |
| 20260901135519 | 76 | 302 | 26.1 | 37.4 | 0.00 | 0.00 | 0.00 | 65 | 1015.9 |
| 20260901134521 | 77 | 301 | 22.6 | 33.0 | 0.00 | 0.00 | 0.00 | 65 | 1015.8 |
| 20260901133518 | 77 | 294 | 21.7 | 26.9 | 0.00 | 0.00 | 0.00 | 65 | 1015.8 |
| 20260901132517 | 77 | 308 | 19.1 | 34.8 | 0.00 | 0.00 | 0.00 | 64 | 1015.8 |
| 20260901131517 | 76 | 296 | 22.6 | 44.3 | 0.00 | 0.00 | 0.00 | 66 | 1015.8 |
| 20260901130522 | 75 | 282 | 31.3 | 43.4 | 0.00 | 0.00 | 0.00 | 66 | 1015.9 |
| 20260901125517 | 74 | 285 | 27.8 | 36.5 | 0.00 | 0.00 | 0.00 | 68 | 1015.8 |
| 20260901124522 | 74 | 291 | 25.2 | 36.5 | 0.00 | 0.00 | 0.00 | 68 | 1015.7 |
| 20260901123518 | 74 | 299 | 23.5 | 34.8 | 0.00 | 0.00 | 0.00 | 67 | 1015.8 |
| 20260901122601 | 75 | 293 | 21.7 | 33.9 | 0.00 | 0.00 | 0.00 | 66 | 1015.8 |
| 20260901121517 | 75 | 283 | 20.0 | 30.4 | 0.00 | 0.00 | 0.00 | 63 | 1015.6 |
| 20260901120517 | 76 | 288 | 15.6 | 20.0 | 0.00 | 0.00 | 0.00 | 62 | 1015.6 |
| 20260901115518 | 76 | 293 | 16.5 | 26.1 | 0.00 | 0.00 | 0.00 | 62 | 1015.7 |
| 20260901114522 | 76 | 286 | 20.9 | 32.2 | 0.00 | 0.00 | 0.00 | 61 | 1015.8 |
| 20260901113517 | 77 | 273 | 23.5 | 35.6 | 0.00 | 0.00 | 0.00 | 60 | 1015.6 |
| 20260901112521 | 77 | 277 | 23.5 | 34.8 | 0.00 | 0.00 | 0.00 | 58 | 1015.5 |
| 20260901111518 | 78 | 302 | 13.0 | 22.6 | 0.00 | 0.00 | 0.00 | 57 | 1015.3 |
| 20260901110522 | 78 | 294 | 10.4 | 18.2 | 0.00 | 0.00 | 0.00 | 57 | 1015.2 |
| 20260901105517 | 78 | 255 | 14.8 | 20.9 | 0.00 | 0.00 | 0.00 | 56 | 1015.3 |
| 20260901104557 | 78 | 257 | 17.4 | 24.3 | 0.00 | 0.00 | 0.00 | 56 | 1015.4 |
| 20260901103520 | 78 | 237 | 16.5 | 21.7 | 0.00 | 0.00 | 0.00 | 55 | 1015.2 |
| 20260901102517 | 78 | 241 | 13.9 | 18.2 | 0.00 | 0.00 | 0.00 | 54 | 1015.1 |
| 20260901101522 | 78 | 233 | 18.2 | 25.2 | 0.00 | 0.00 | 0.00 | 52 | 1015.1 |
| 20260901100522 | 79 | 219 | 14.8 | 20.0 | 0.00 | 0.00 | 0.00 | 50 | 1015.1 |
| 20260901095517 | 79 | 251 | 14.8 | 22.6 | 0.00 | 0.00 | 0.00 | 48 | 1015.0 |
| 20260901094518 | 79 | 256 | 15.6 | 22.6 | 0.00 | 0.00 | 0.00 | 48 | 1015.1 |
| 20260901093518 | 79 | 250 | 13.9 | 20.9 | 0.00 | 0.00 | 0.00 | 49 | 1014.9 |